Regional Weather Roundup
Issued by NWS

Home | Current Version | Previous Version | Graphics & Text | Print | Product List | Glossary On
Versions: 1 2 3 4 5 6 7 8 9 10 11 12 13 14 15 16 17 18 19 20 21 22 23 24 25 26 27 28 29 30 31 32 33 34 35 36 37 38 39 40 41 42 43 44 45 46 47 48 49 50
000
ASUS45 KPSR 201810
RWRAZ

ARIZONA REGIONAL HOURLY WEATHER ROUNDUP
NATIONAL WEATHER SERVICE PHOENIX AZ
1100 AM MST MON APR 20 2015

NOTE: FAIR INDICATES FEW OR NO CLOUDS BELOW 12,000 FEET WITH NO
SIGNIFICANT WEATHER AND/OR OBSTRUCTIONS TO VISIBILITY.

AZZ001>003-036-201900-
NORTHWEST ARIZONA

CITY           SKY/WX    TMP DP  RH WIND       PRES   REMARKS
BULLHEAD CITY  SUNNY     82  25  12 SW9       29.80F
KINGMAN        SUNNY     80  13   8 SW21G26   29.92S
6HR MIN TEMP:  49; 6HR MAX TEMP:  80;

$$

AZZ004>008-015-016-018-201900-
NORTH CENTRAL ARIZONA

CITY           SKY/WX    TMP DP  RH WIND       PRES   REMARKS
GRAND CANYON   PTSUNNY   65  15  14 W9G18     30.05F
6HR MIN TEMP:  22; 6HR MAX TEMP:  66;

WILLIAMS       SUNNY     64  16  15 W9G16     30.13S
PRESCOTT       MOSUNNY   72  16  12 W13       29.99F
6HR MIN TEMP:  43; 6HR MAX TEMP:  72;

FLAGSTAFF      PTSUNNY   60  15  17 VRB5      30.07F
6HR MIN TEMP:  26; 6HR MAX TEMP:  63;

PAYSON         SUNNY     70  21  16 S7G15     30.02F
PAGE           MOSUNNY   68  27  21 NE3       29.93F
6HR MIN TEMP:  49; 6HR MAX TEMP:  69;

$$

AZZ009>014-017-201900-
NORTHEAST ARIZONA

CITY           SKY/WX    TMP DP  RH WIND       PRES   REMARKS
WINSLOW        SUNNY     75  19  12 VRB6      29.96F
6HR MIN TEMP:  37; 6HR MAX TEMP:  75;

SAINT JOHNS    SUNNY     67  17  14 NW10G21   30.00F
6HR MIN TEMP:  33; 6HR MAX TEMP:  68;

WINDOW ROCK    MOSUNNY   66  15  14 NW16G24   30.03F
6HR MIN TEMP:  25; 6HR MAX TEMP:  67;

SHOW LOW       SUNNY     64  16  15 SW13G18   30.05F
$$

AZZ023-201900-
GREATER PHOENIX AREA

CITY           SKY/WX    TMP DP  RH WIND       PRES   REMARKS
PHOENIX        MOSUNNY   84  22  10 NE5       29.83F
6HR MIN TEMP:  65; 6HR MAX TEMP:  84;

BUCKEYE        SUNNY     81  28  15 SE5       29.84F
GLENDALE       MOSUNNY   82  23  11 E3        29.86F
LUKE AFB       SUNNY     81  26  13 NW1       29.83F
6HR MIN TEMP:  57; 6HR MAX TEMP:  81;

DEER VALLEY    SUNNY     81  19  10 S7        29.85F
6HR MIN TEMP:  58; 6HR MAX TEMP:  81;

SCOTTSDALE     SUNNY     80  17   9 CALM      29.87F
6HR MIN TEMP:  60; 6HR MAX TEMP:  81;

MESA-FALCON    MOSUNNY   79  19  11 E7        29.85F
MESA-GATEWAY   MOSUNNY   81  23  12 CALM      29.87F
CHANDLER       MOSUNNY   81  25  12 NE5       29.85F
$$

AZZ027-028-201900-
SOUTHWEST MARICOPA COUNTY AND PINAL COUNTY

CITY           SKY/WX    TMP DP  RH WIND       PRES   REMARKS
CASA GRANDE    SUNNY     81  25  12 CALM      29.84F
6HR MIN TEMP:  55; 6HR MAX TEMP:  82;

GILA BEND      SUNNY     85  15   7 NW7       29.81F
6HR MIN TEMP:  59; 6HR MAX TEMP:  85;

$$

AZZ503-504-507>509-201900-
SOUTHEAST ARIZONA

CITY           SKY/WX    TMP DP  RH WIND       PRES   REMARKS
TUCSON         SUNNY     79  19  10 SE3       29.91F
6HR MIN TEMP:  57; 6HR MAX TEMP:  81;

DAVIS-MONTHAN  SUNNY     78  20  11 VRB3      29.89F
6HR MIN TEMP:  54; 6HR MAX TEMP:  78;

RYAN FIELD       N/A     81  23  12 SE5       29.90F
NOGALES        SUNNY     78  22  12 SW8       29.96F
6HR MIN TEMP:  44; 6HR MAX TEMP:  78;

SIERRA VISTA   SUNNY     74  19  12 E13       29.98F
6HR MIN TEMP:  51; 6HR MAX TEMP:  74;

DOUGLAS        SUNNY     74  24  15 SE7       29.97F
6HR MIN TEMP:  42; 6HR MAX TEMP:  74;

SAFFORD        SUNNY     78  25  14 VRB5      29.91F
6HR MIN TEMP:  46; 6HR MAX TEMP:  79;

$$

AZZ020-021-025-026-031-201900-
SOUTHWEST ARIZONA

CITY           SKY/WX    TMP DP  RH WIND       PRES   REMARKS
YUMA           MOSUNNY   85  36  17 S10       29.80F
6HR MIN TEMP:  60; 6HR MAX TEMP:  85;

$$

CAZ031-033-041-043-047-048-061-201900-
SOUTHERN CALIFORNIA

CITY           SKY/WX    TMP DP  RH WIND       PRES   REMARKS
DOWNTOWN L.A.  CLOUDY    64  51  62 CALM      29.91S
6HR MIN TEMP:  56; 6HR MAX TEMP:  65;

L.A. AIRPORT   PTSUNNY   61  51  70 W8        29.93S
6HR MIN TEMP:  57; 6HR MAX TEMP:  61;

SAN DIEGO      MOSUNNY   65  49  56 VRB6      29.92F
6HR MIN TEMP:  61; 6HR MAX TEMP:  66;

BURBANK        SUNNY     63  50  62 VRB3      29.90S
6HR MIN TEMP:  54; 6HR MAX TEMP:  64;

ONTARIO        MOSUNNY   64  49  57 VRB3      29.90F
6HR MIN TEMP:  54; 6HR MAX TEMP:  64;

RIVERSIDE      SUNNY     64  48  56 CALM      29.90F
6HR MIN TEMP:  52; 6HR MAX TEMP:  64;

PALM SPRINGS   SUNNY     83  35  18 VRB3      29.81F
6HR MIN TEMP:  63; 6HR MAX TEMP:  83;

EL CENTRO NAS  MOSUNNY   85  38  19 VRB5      29.78S
                   6HR MAX TEMP:  85;

IMPERIAL       SUNNY     81  45  28 CALM      29.78S
6HR MIN TEMP:  62; 6HR MAX TEMP:  81;

BLYTHE         SUNNY     83  24  11 S12G22    29.80S
6HR MIN TEMP:  59; 6HR MAX TEMP:  85;

NEEDLES        SUNNY     87  20   8 E5        29.80F
6HR MIN TEMP:  64; 6HR MAX TEMP:  87;

$$

NVZ020-UTZ003-201900-
SOUTHERN NEVADA-UTAH

CITY           SKY/WX    TMP DP  RH WIND       PRES   REMARKS
LAS VEGAS      MOSUNNY   82  17   9 VRB3      29.81S
6HR MIN TEMP:  65; 6HR MAX TEMP:  82;

SALT LAKE CITY MOSUNNY   62  31  31 W7        29.96S
6HR MIN TEMP:  43; 6HR MAX TEMP:  62;

$$

NMZ009-TXZ055-201900-
NEW MEXICO-WEST TEXAS

CITY           SKY/WX    TMP DP  RH WIND       PRES   REMARKS
ALBUQUERQUE    MOSUNNY   63  26  24 SW8       30.00F
6HR MIN TEMP:  43; 6HR MAX TEMP:  63;

EL PASO        MOSUNNY   71  32  23 VRB7      29.97F
6HR MIN TEMP:  53; 6HR MAX TEMP:  71;

$$


........................KEY........................
SKY/WX - SKY CONDITION/WEATHER
TMP    - TEMPERATURE IN FAHRENHEIT
DP     - DEW POINT IN FAHRENHEIT
RH     - RELATIVE HUMIDITY IN PERCENT
WIND   - DIRECTION AND SPEED IN MILES PER HOUR (MPH)
VRB    - VARIABLE WIND DIRECTION
PRES   - MEAN SEA LEVEL PRESSURE IN INCHES OF MERCURY
         F - FALLING PRESSURE   R - RISING PRESSURE
         S - STEADY PRESSURE
VSB    - VISIBILITY IN MILES
HX     - HEAT INDEX IN FAHRENHEIT
WCI    - WIND CHILL INDEX IN FAHRENHEIT
TC     - TEMPERATURE IN CELSIUS WHICH IS ALSO KNOWN AS
         TEMPERATURE IN CENTIGRADE
AFB    - AIR FORCE BASE
         LUKE AFB IS LUKE AIR FORCE BASE
         DAVIS-MONTHAN IS DAVIS-MONTHAN AIR FORCE BASE
NAS    - NAVAL AIR STATION
         EL CENTRO NAS IS EL CENTRO NAVAL AIR STATION
N/A    - NOT AVAILABLE




USA.gov is the U.S. government's official web portal to all federal, state and local government web resources and services.